This is the latest recevied weather packets stored in our database for station/object OK4PZ-5. If no packets are shown the sender has not sent any weather packets the latest 10 day(s).
| Time | Temp. | Humidity | Pressure | Rain* | Wind** | Luminosity | Snow |
|---|---|---|---|---|---|---|---|
| 1777032903 | 18.33° C | 29% | 1018 hPa | 0 mm | - | - | - |
| 1777032002 | 17.78° C | 30% | 1018 hPa | 0 mm | - | - | - |
| 1777031102 | 17.78° C | 32% | 1018 hPa | 0 mm | - | - | - |
| 1777030202 | 17.78° C | 32% | 1018 hPa | 0 mm | - | - | - |
| 1777029303 | 17.22° C | 34% | 1019 hPa | 0 mm | - | - | - |
| 1777028402 | 17.22° C | 33% | 1019 hPa | 0 mm | - | - | - |
| 1777027502 | 16.67° C | 34% | 1019 hPa | 0 mm | - | - | - |
| 1777026602 | 16.11° C | 38% | 1019 hPa | 0 mm | - | - | - |
| 1777025703 | 16.67° C | 38% | 1019 hPa | 0 mm | - | - | - |
| 1777024803 | 15.56° C | 41% | 1019 hPa | 0 mm | - | - | - |
| 1777023903 | 15° C | 43% | 1019 hPa | 0 mm | - | - | - |
| 1777023002 | 15.56° C | 46% | 1020 hPa | 0 mm | - | - | - |
| 1777022103 | 14.44° C | 45% | 1019 hPa | 0 mm | - | - | - |
| 1777021202 | 13.89° C | 49% | 1020 hPa | 0 mm | - | - | - |
| 1777020302 | 13.89° C | 51% | 1020 hPa | 0 mm | - | - | - |
| 1777019403 | 13.89° C | 53% | 1020 hPa | 0 mm | - | - | - |
| 1777018503 | 12.78° C | 56% | 1020 hPa | 0 mm | - | - | - |
| 1777017603 | 12.78° C | 56% | 1020 hPa | 0 mm | - | - | - |
| 1777016702 | 12.22° C | 58% | 1020 hPa | 0 mm | - | - | - |
| 1777015802 | 12.22° C | 59% | 1020 hPa | 0 mm | - | - | - |
| 1777014902 | 11.11° C | 63% | 1020 hPa | 0 mm | - | - | - |
| 1777014003 | 10.56° C | 63% | 1020 hPa | 0 mm | - | - | - |
| 1777013102 | 10.56° C | 61% | 1020 hPa | 0 mm | - | - | - |
| 1777012202 | 10° C | 63% | 1020 hPa | 0 mm | - | - | - |
* Rain latest hour (hover to see other rain measurements)
** Current wind speed in m/s (hover to see current wind gust speed)